Home   Weather   Fairfield Acres   Past weeks
Flag for USA

Past Weather in Fairfield Acres, South Carolina, USA — Yesterday and Last 2 Weeks

Now
84 °F

Passing clouds.


Feels Like: 90 °F
Forecast: 90 / 72 °F
Wind: 6 mph from Northwest

Location: Anderson County Airport

Current Time: Jul 4, 2020 at 9:31:08 pm

Latest Report: Jul 4, 2020 at 8:56 pm


Visibility: 10 mi

Pressure: 29.88 "Hg

Humidity: 67%

Dew Point: 72 °F

Location of Fairfield AcresLocation

Past Weather in Fairfield Acres — Graph

°F

Fairfield Acres Temperature Yesterday

Maximum temperature yesterday: 90 °F (at 2:56 pm)
Minimum temperature yesterday: 72 °F (at 4:56 am)
Average temperature yesterday: 81 °F

High & Low Weather Summary for the Past Weeks

 TemperatureHumidityPressure
High93 °F (Jul 2, 3:56 pm)97% (Jun 20, 4:31 am)30.20 "Hg (Jun 20, 4:31 am)
Low64 °F (Jun 20, 4:31 am)36% (Jun 20, 2:56 pm)29.80 "Hg (Jun 23, 6:56 pm)
Average77 °F74%29.96 "Hg
* Reported Jun 19 7:56 pm — Jul 4 7:56 pm, Fairfield Acres. Weather by CustomWeather, © 2020

Note: Actual official high and low records may vary slightly from our data, if they occured in-between our weather recording intervals... More about our weather records

Fairfield Acres Weather History for the Previous 24 Hours

Scroll right to see more
 ConditionsComfort  
Time TempWeatherWind HumidityBarometerVisibility
7:56 pm
Sat, Jul 4
89 °FPartly sunny.No wind50%29.87 "Hg10 mi
6:56 pm90 °FScattered clouds.3 mph45%29.86 "Hg10 mi
5:56 pm92 °FScattered clouds.5 mph43%29.86 "Hg10 mi
4:56 pm90 °FBroken clouds.5 mph47%29.89 "Hg10 mi
3:56 pm91 °FPassing clouds.3 mph45%29.90 "Hg10 mi
2:56 pm91 °FScattered clouds.N/A47%29.91 "Hg10 mi
1:56 pm92 °FPartly sunny.8 mph46%29.92 "Hg10 mi
12:56 pm90 °FSunny.No wind45%29.94 "Hg10 mi
11:56 am88 °FSunny.No wind52%29.95 "Hg10 mi
10:56 am83 °FPartly sunny.No wind63%29.96 "Hg10 mi
9:56 am80 °FOvercast.5 mph71%29.95 "Hg10 mi
8:56 am77 °FOvercast.No wind77%29.95 "Hg10 mi
7:56 am76 °FPartly sunny.3 mph80%29.93 "Hg10 mi
6:56 am76 °FOvercast.No wind80%29.92 "Hg10 mi
5:56 am76 °FOvercast.No wind82%29.91 "Hg10 mi
4:56 am76 °FOvercast.No wind82%29.91 "Hg10 mi
3:56 am74 °FMostly cloudy.No wind88%29.91 "Hg10 mi
2:56 am74 °FOvercast.No wind88%29.92 "Hg10 mi
1:56 am75 °FPassing clouds.3 mph85%29.92 "Hg10 mi
12:56 am74 °FPassing clouds.No wind88%29.93 "Hg10 mi
11:56 pm
Fri, Jul 3
75 °FClear.No wind82%29.93 "Hg10 mi
10:56 pm77 °FClear.No wind77%29.93 "Hg10 mi
9:56 pm80 °FClear.No wind69%29.92 "Hg10 mi
Weather by CustomWeather, © 2020

See weather overview